Temp
20 22 21 22 21 20 21 20 21 23 22 21 21 22 23 23 17 17 16 16 16 15 15 15 14 13 13 14 14 15 15 16 17 17 17 17 17 17 17 16 16 16 16 15
20 21 22 20 19 20 20 20 21 21 21 20 22 22 22 20 16 16 16 15 15 15 15 14 14 13 13 13 13 13 14 15 16 15 14 14 16 16 16 16 16 16 15 15
21 22 20 20 20 20 20 20 20 21 21 20 20 22 19 16 15 15 14 14 14 14 14 14 13 13 13 12 13 12 13 13 14 15 16 15 13 13 14 14 14 14 15 15
20 20 20 21 21 21 20 21 20 20 20 20 21 22 23 16 15 14 14 14 13 13 13 13 13 12 12 12 13 13 14 14 13 14 14 16 16 15 14 14 14 13 14 14
21 20 21 21 21 20 21 20 20 20 20 19 20 19 21 15 14 14 14 13 13 13 13 13 13 12 12 11 11 11 12 13 13 14 13 13 14 14 14 13 13 14 14 13
20 20 20 21 21 20 20 20 20 16 17 17 19 20 18 15 14 13 13 12 13 13 13 13 12 12 12 11 11 11 11 11 12 12 12 13 13 13 13 13 14 14 14 12
19 20 19 19 20 19 19 20 19 19 18 20 18 18 20 13 13 13 11 12 12 12 13 12 12 11 10 10 9 10 10 10 10 9 11 11 11 12 11 11 12 12 12 13
17 19 19 18 20 19 19 19 18 17 19 20 20 18 16 13 12 11 11 11 12 12 12 11 11 9 9 9 8 8 8 9 9 8 9 10 10 10 11 10 10 10 11 11
18 17 18 18 18 19 17 17 17 16 18 16 20 12 12 12 11 10 10 11 11 11 11 10 9 8 8 8 8 7 7 8 8 8 8 9 9 10 9 10 10 9 10 10
16 15 17 17 17 18 18 18 16 15 15 16 19 19 17 11 9 9 10 10 10 10 10 9 9 8 8 8 7 7 6 7 7 7 7 8 8 9 8 8 8 8 8 9
16 15 15 16 16 17 16 16 15 14 13 15 16 17 11 10 9 9 10 10 10 9 9 8 8 8 8 7 7 6 6 6 7 6 7 9 9 8 8 7 6 7 7 7
13 13 12 15 15 14 15 15 15 13 14 12 12 14 11 10 11 11 10 10 9 8 8 8 8 7 7 7 6 6 5 6 6 6 6 7 6 7 5 5 4 4 5 5
12 12 13 15 13 13 13 13 13 9 8 11 12 14 10 11 12 10 9 9 8 8 8 7 8 7 6 6 6 5 5 5 6 5 7 7 6 5 4 3 3 3 3 4
12 11 13 14 16 13 11 11 10 10 10 12 11 11 11 10 11 11 9 9 8 8 7 7 7 6 6 6 5 4 4 5 6 5 5 5 3 2 1 1 1 1 2 2
10 10 10 11 12 10 9 9 9 9 10 9 10 9 10 11 9 8 8 7 7 6 7 7 6 7 6 6 4 3 3 5 6 5 4 3 1 1 1 1 0 0 1 1
7 10 8 7 9 9 8 9 9 9 9 9 9 9 8 8 8 8 8 7 6 6 7 7 7 7 5 5 3 2 3 6 5 4 3 1 1 0 0 -0 -1 -1 -0 0
7 8 7 10 8 8 8 7 8 9 9 9 8 9 8 8 8 8 7 7 6 6 6 6 6 6 5 4 2 2 4 4 4 2 1 1 0 -0 -0 -1 -1 -1 -1 -1
7 7 7 8 8 8 9 8 9 8 8 8 8 8 8 7 7 6 6 5 4 5 5 5 5 4 4 3 1 3 3 2 1 1 1 0 -0 -0 -1 -1 -1 -2 -2 -2
6 6 7 7 7 9 8 6 7 6 7 8 6 7 7 7 5 7 6 6 6 6 5 5 4 4 4 2 1 1 2 2 1 1 1 1 -0 -1 -1 -1 -1 -1 -2 -2
6 4 6 5 5 6 7 5 5 5 6 7 4 6 6 4 5 7 6 5 5 5 3 3 3 3 4 2 2 3 2 1 1 1 1 1 1 1 -0 -0 -1 -1 -2 -2
5 5 5 4 5 6 7 5 5 5 7 5 6 6 4 4 6 5 5 5 4 2 2 3 2 3 3 2 2 2 2 1 1 1 0 0 0 0 1 0 -1 -1 -1 -2
7 5 4 3 2 4 6 5 5 7 5 6 6 5 4 5 4 4 3 3 3 3 3 4 4 3 2 2 2 1 1 0 -0 -0 -1 -1 -0 0 -0 -0 -0 -0 -1 -2
6 6 5 6 6 7 6 5 6 5 4 5 4 5 4 3 3 3 3 4 4 4 4 3 3 3 2 1 1 0 -0 -1 -1 -1 -1 -1 -1 -1 -0 -0 -1 -1 -1 -1
6 5 6 6 7 6 6 6 5 6 5 5 5 5 3 2 4 4 4 4 4 3 3 3 2 2 2 1 0 -0 -1 -1 -1 -1 -1 -1 -1 -1 -1 -1 -1 -1 -1 -1
6 5 5 4 5 5 6 6 6 6 5 5 5 4 3 3 3 4 4 4 3 2 2 2 1 1 1 1 1 -0 -1 -1 -1 -2 -2 -1 -1 -1 -2 -1 -1 -1 -1 -1
5 5 4 6 6 5 7 7 6 5 5 5 5 4 4 3 4 4 3 2 2 1 2 1 1 1 1 1 0 -0 -1 -2 -2 -2 -2 -2 -2 -2 -2 -1 -1 -1 -1 -1
Height
780 781 782 778 784 787 785 787 782 766 765 772 763 755 745 743 758 761 766 767 768 767 767 763 761 758 752 746 742 737 734 733 732 731 730 729 729 732 734 738 743 746 749 751
783 784 773 779 783 786 788 789 782 768 762 769 754 747 744 746 757 763 766 768 769 768 767 766 763 759 756 752 748 746 743 739 737 734 733 730 727 728 729 731 737 741 745 746
786 779 777 778 783 784 784 785 780 776 762 761 759 735 747 759 762 766 770 773 773 772 770 768 766 764 760 757 753 751 749 746 744 740 737 735 733 732 731 732 733 735 739 742
783 776 778 779 781 781 785 773 774 775 777 774 763 739 733 757 768 771 773 775 777 777 776 773 770 767 763 761 758 754 752 748 747 743 741 737 733 734 735 738 735 736 735 739
781 779 777 779 775 776 775 770 772 771 772 773 768 769 735 763 772 775 778 780 781 779 778 775 773 771 768 766 762 758 753 750 747 744 742 739 736 735 735 734 735 732 738 737
774 772 773 769 766 769 768 771 767 779 777 779 761 762 751 768 772 777 778 781 781 779 778 776 775 771 767 764 760 756 754 750 747 744 741 739 737 734 733 731 730 730 730 739
777 772 768 767 771 771 772 774 776 770 774 762 764 763 738 776 776 777 782 782 781 779 776 775 773 770 767 765 761 755 751 746 744 743 742 739 737 732 731 731 729 728 722 726
788 783 772 770 769 774 775 779 789 786 763 750 751 751 757 777 780 783 784 783 781 779 779 777 776 772 768 763 759 754 749 744 740 737 736 738 736 731 724 724 728 725 721 723
783 786 773 773 771 770 783 785 780 785 768 770 738 774 779 780 785 787 787 784 782 781 779 775 772 770 766 762 757 752 747 742 738 737 730 730 734 727 723 718 720 719 713 719
781 789 775 776 774 773 773 774 786 791 787 765 729 730 740 780 790 788 786 785 782 779 776 773 771 769 766 762 756 750 744 736 733 730 726 729 726 722 719 717 717 714 720 713
776 786 784 779 778 773 778 779 782 788 791 772 754 734 769 781 784 786 786 784 780 778 776 775 772 767 763 758 753 747 741 736 728 726 723 718 719 719 714 718 717 717 716 706
778 783 787 775 775 778 777 777 777 790 780 782 779 744 775 780 781 778 781 778 778 779 775 772 766 763 760 755 748 743 735 730 727 723 722 722 716 718 718 714 712 713 709 697
780 785 779 768 781 781 781 782 781 802 807 785 777 749 779 777 774 778 779 778 777 776 774 772 767 762 756 751 746 739 731 724 721 718 717 715 714 718 715 710 708 704 696 697
776 782 774 767 759 777 788 788 789 791 790 769 770 764 770 777 771 772 779 778 776 777 775 769 766 761 754 748 743 737 726 719 717 715 716 716 715 714 711 708 705 700 698 697
783 781 783 777 775 784 787 787 789 790 781 786 769 779 775 774 780 780 781 779 777 774 770 768 764 757 750 745 739 729 721 717 714 714 715 714 713 711 709 707 702 699 697 696
792 783 795 796 788 788 789 785 783 782 783 784 781 778 782 780 779 776 774 773 773 769 763 760 758 753 748 740 732 725 717 711 711 712 713 714 713 712 709 705 702 699 697 694
793 792 797 775 792 792 788 788 784 782 779 781 783 778 780 777 775 771 772 770 769 767 763 758 754 752 747 739 730 720 710 709 709 712 714 712 709 706 704 703 701 700 697 693
790 796 796 791 793 788 779 781 780 782 783 779 782 778 777 779 778 777 776 773 771 766 761 757 753 751 744 738 730 721 715 711 712 712 711 708 707 705 704 702 699 696 693 690
789 794 797 795 795 776 777 787 784 787 781 778 783 778 776 776 775 771 771 770 767 763 757 756 753 750 745 740 732 725 721 716 713 711 710 708 707 704 701 699 695 692 688 685
793 801 796 807 805 794 778 787 787 786 782 777 786 780 778 779 771 762 765 767 763 759 757 755 751 747 743 740 734 728 722 718 715 714 711 709 706 704 701 698 695 692 688 682
793 801 799 807 804 789 777 785 788 791 777 777 775 775 777 775 767 764 764 762 761 759 757 754 751 746 743 739 734 729 725 721 718 715 712 708 705 700 697 694 692 688 684 680
781 793 798 813 817 798 776 786 786 771 771 772 770 769 769 765 766 764 764 762 758 757 754 751 748 746 743 739 736 731 727 724 719 714 710 705 702 699 695 691 687 684 681 677
784 779 784 784 773 769 771 767 767 769 771 767 765 760 766 764 764 762 762 759 757 755 754 751 749 746 744 741 737 733 729 724 720 715 711 706 701 696 692 688 684 681 678 676
779 781 778 778 761 768 769 767 767 766 765 764 764 759 759 762 758 758 758 755 755 755 752 750 748 746 743 740 738 735 730 724 719 714 709 704 699 693 689 686 682 678 675 673
773 779 775 778 769 769 764 762 761 761 763 765 766 761 757 759 757 756 755 754 754 753 750 749 748 746 744 741 738 733 729 724 719 715 710 704 698 692 687 684 679 675 672 670
767 764 770 760 758 762 759 759 759 758 757 753 756 756 756 757 754 754 753 752 752 751 749 748 747 745 742 739 736 733 729 724 720 715 709 702 696 690 687 682 676 672 669 667
Wind_Speed
1 3 8 10 6 2 0 3 11 17 10 7 18 18 20 11 3 3 6 7 8 10 10 15 18 20 23 27 25 24 18 12 10 17 18 22 23 25 28 28 27 33 34 34
1 7 7 2 5 4 4 7 11 16 10 5 17 20 18 8 2 5 7 8 9 11 14 18 22 25 25 23 26 22 21 22 16 18 17 8 6 8 12 23 19 23 27 30
2 1 3 3 3 2 4 7 8 15 18 9 13 15 4 3 8 9 9 8 9 11 13 15 20 23 26 27 29 25 20 15 15 17 13 16 19 16 9 3 4 11 16 28
4 2 2 1 5 3 11 5 12 15 10 9 7 15 9 3 8 9 9 10 10 12 13 14 18 21 21 23 27 26 24 21 17 14 9 11 7 5 8 10 11 9 10 17
4 3 4 9 8 6 10 6 8 11 14 13 14 9 2 9 6 7 8 10 12 11 11 13 16 21 21 21 21 23 25 22 21 19 15 9 7 4 4 4 5 7 11 14
6 1 4 6 6 5 5 6 12 1 3 6 6 13 3 3 3 7 8 11 12 13 13 14 18 19 20 21 22 23 22 21 23 24 22 15 13 11 10 9 10 11 11 19
6 5 2 1 3 2 3 12 7 3 2 5 1 5 7 8 10 11 12 12 12 11 11 13 14 19 21 23 24 23 23 25 22 21 23 22 17 13 14 14 15 15 14 18
1 4 2 2 3 1 9 5 4 8 6 11 8 10 2 9 10 12 11 11 11 12 12 13 15 20 23 25 25 26 27 27 24 22 20 19 18 16 13 11 16 17 16 20
4 5 2 2 1 2 4 5 2 6 11 8 6 3 3 7 8 8 11 12 14 12 12 13 16 19 21 24 25 27 29 28 25 24 18 17 18 14 12 11 14 16 18 24
1 6 3 3 1 3 5 3 5 0 5 7 7 13 5 11 3 7 12 15 15 13 14 15 16 22 25 26 26 32 32 30 27 28 15 14 14 12 12 12 11 10 15 16
4 5 1 1 6 13 4 5 3 3 3 5 10 4 7 11 4 6 15 16 14 13 14 14 17 22 24 22 23 31 32 31 26 23 17 12 11 12 10 10 9 10 11 8
2 2 4 9 5 2 3 5 5 5 5 4 5 8 11 6 1 14 14 12 10 11 14 14 18 21 25 25 23 27 30 27 24 19 12 7 6 8 8 7 9 11 11 10
6 3 4 3 2 2 1 1 3 1 1 7 8 8 9 9 20 15 8 8 10 11 14 14 15 20 22 23 26 25 29 25 20 14 6 5 9 11 10 10 11 12 13 12
4 3 8 13 14 2 5 8 6 7 5 10 12 20 10 19 18 15 7 10 12 13 12 13 15 16 22 24 24 26 27 23 14 5 5 6 7 9 11 12 12 12 12 12
2 4 5 13 16 10 9 7 11 13 12 9 13 16 18 16 8 8 9 11 11 12 14 14 16 17 21 26 24 30 30 22 10 2 3 6 8 10 12 12 14 15 14 13
2 1 0 4 9 10 10 10 12 14 14 15 17 16 5 9 7 9 10 11 13 11 17 17 18 20 23 24 27 31 28 10 1 4 6 5 8 10 12 14 15 14 14 15
5 3 2 5 1 5 10 5 9 4 6 7 11 12 11 13 11 12 11 15 12 14 16 18 18 19 22 25 30 33 10 3 8 7 4 8 12 15 16 14 12 12 12 14
5 4 3 2 3 5 3 1 2 4 3 8 8 11 12 11 13 15 11 9 10 11 17 17 18 23 23 24 32 31 13 7 9 9 10 14 15 17 14 13 13 14 14 14
2 4 2 3 4 7 4 4 3 1 7 7 5 9 9 9 8 15 5 5 13 17 14 17 21 21 20 19 26 20 18 13 14 17 17 18 17 14 16 17 18 17 16 17
3 4 3 3 3 5 2 4 5 4 5 2 3 9 11 6 9 12 8 13 14 20 13 16 20 20 21 20 23 11 15 21 21 19 20 19 18 17 16 16 16 14 13 17
5 3 7 3 4 7 6 8 6 2 1 3 6 10 7 5 7 15 17 18 15 12 12 17 16 17 19 19 20 20 21 21 20 20 19 19 20 21 19 19 17 14 16 17
7 7 4 3 4 9 10 7 5 3 4 9 11 11 9 8 9 12 12 7 9 7 12 14 14 16 19 20 21 19 21 22 22 21 21 21 21 18 21 21 22 19 14 14
5 5 4 8 5 3 14 4 8 3 6 9 7 8 6 6 8 7 9 9 7 11 14 13 14 15 16 16 19 19 22 23 23 20 20 19 20 20 20 20 20 17 14 11
4 4 3 1 6 12 10 12 10 7 9 9 9 8 5 7 7 7 7 7 7 11 13 12 13 15 16 15 18 18 20 23 23 22 21 21 20 22 19 20 18 17 15 11
4 7 6 6 10 10 13 12 12 10 7 8 8 7 6 8 7 6 6 6 8 10 11 11 12 13 15 14 16 18 19 21 21 21 20 19 20 20 22 20 21 19 20 14
6 6 5 6 6 3 5 5 3 8 10 8 6 5 7 9 8 6 5 5 7 8 9 9 11 13 14 13 16 17 18 19 19 20 19 20 21 21 21 21 22 20 16 14
Wind_Direction
27 207 223 229 228 21 82 264 279 286 268 271 267 269 275 279 144 137 89 69 51 34 9 26 22 20 19 26 24 24 21 6 300 253 232 225 217 221 218 227 229 230 232 223
101 246 245 170 179 215 240 274 287 283 289 220 280 272 260 250 115 102 84 66 46 34 30 24 26 24 20 21 22 22 31 37 29 28 26 11 219 199 195 212 224 236 238 222
201 315 60 176 156 232 241 266 287 288 312 273 294 274 208 103 109 89 69 62 49 38 30 24 20 19 18 16 16 15 19 18 31 38 35 37 33 24 33 350 234 232 231 230
254 305 192 162 277 224 289 234 276 289 304 290 3 294 287 145 109 79 67 57 48 32 26 22 16 11 11 6 7 6 6 12 7 4 12 23 70 44 55 21 350 288 245 235
269 236 283 289 268 177 273 309 291 282 267 290 252 265 13 120 126 102 69 54 40 30 22 14 9 5 1 355 351 350 349 347 347 348 346 330 328 331 291 272 259 307 274 254
244 254 235 244 265 228 309 308 295 263 259 248 277 229 50 5 153 116 79 50 24 12 8 2 352 347 344 343 340 341 339 331 331 332 329 309 296 288 279 274 270 271 280 261
316 274 313 349 285 81 50 341 312 271 232 259 356 277 289 101 104 91 73 29 9 358 351 344 341 343 339 335 333 331 328 322 328 325 319 314 302 287 282 277 270 258 256 251
263 319 352 218 133 352 326 274 259 290 287 287 285 258 135 121 102 85 37 10 355 346 346 339 336 333 331 329 329 329 323 316 317 315 311 307 300 289 282 289 288 277 258 258
269 241 250 251 13 260 127 216 303 283 277 283 235 107 169 155 104 43 8 359 354 343 327 325 324 320 317 314 317 321 318 309 311 306 308 291 290 308 312 311 291 287 279 260
49 292 282 338 187 248 235 170 257 25 282 267 252 268 233 173 122 358 355 351 340 325 321 319 321 320 319 316 313 318 312 304 300 305 294 290 302 311 320 320 309 301 281 269
158 181 160 43 215 261 214 236 223 303 236 264 295 270 149 148 142 4 344 326 310 306 308 313 313 314 314 310 307 316 313 306 301 302 295 306 313 321 325 312 311 302 293 293
105 149 238 262 324 59 285 251 229 228 219 236 276 282 154 119 292 344 325 311 300 298 302 301 308 313 316 318 311 315 307 303 300 298 286 307 333 332 328 325 323 311 307 323
162 214 293 242 137 59 136 171 169 135 169 224 274 285 180 313 333 330 320 308 299 303 314 316 317 321 319 317 315 315 310 297 302 299 285 337 350 339 339 338 328 330 336 325
133 208 220 259 279 261 235 206 174 181 233 275 254 289 308 317 307 321 324 313 313 317 319 319 323 321 316 316 314 317 311 301 306 325 323 342 354 352 356 349 342 343 337 324
149 241 219 259 274 276 256 243 208 213 239 242 296 295 296 308 321 316 312 315 319 320 324 323 320 323 317 321 316 325 311 302 303 282 350 2 11 3 360 352 350 345 338 324
101 272 290 270 266 263 266 259 241 249 262 273 276 283 358 325 304 299 312 319 321 319 326 326 321 327 324 326 325 314 302 305 329 62 19 13 20 14 6 2 351 339 329 325
167 187 160 276 45 309 272 226 225 192 208 274 287 308 300 303 296 296 316 315 309 316 324 322 321 328 328 329 326 321 329 63 70 58 35 29 26 19 12 359 346 332 319 320
163 165 186 295 300 242 106 91 180 231 275 270 286 301 310 295 292 297 293 285 299 315 322 323 324 330 335 337 334 345 8 65 70 56 33 26 15 13 3 354 343 333 327 316
127 122 168 256 236 307 195 165 166 261 289 272 247 288 304 311 294 290 273 309 318 319 321 321 325 331 333 344 333 349 358 26 35 25 12 3 359 351 352 351 346 337 328 324
135 105 185 151 241 270 185 195 154 130 275 203 198 275 282 316 305 315 315 318 318 323 324 322 325 330 342 347 340 352 13 17 14 360 355 351 348 342 337 335 337 329 322 324
150 168 209 198 240 275 230 162 164 183 260 245 298 285 274 272 281 312 314 305 316 316 326 323 321 338 344 347 351 1 1 4 357 351 342 336 336 339 335 328 326 324 332 326
176 177 191 153 207 258 159 132 204 227 293 282 292 291 284 289 313 331 332 321 312 320 316 331 335 344 344 352 354 351 357 351 347 345 343 342 342 329 330 326 325 325 324 315
212 204 184 206 223 244 191 209 208 234 259 284 271 284 274 304 317 319 318 320 343 337 334 337 342 340 342 352 356 350 351 350 343 343 342 340 340 341 336 324 315 310 310 311
228 183 232 239 242 238 235 247 263 262 254 270 270 270 261 277 300 304 312 330 328 331 328 336 341 339 337 345 349 344 344 348 345 342 340 338 334 332 334 327 315 303 296 300
205 160 219 258 273 269 262 259 264 269 247 269 288 262 261 283 277 295 307 320 327 323 324 335 333 330 328 332 339 345 341 342 344 339 334 332 337 341 335 327 320 306 303 291
189 200 199 236 233 238 266 228 230 244 247 254 263 266 262 248 265 275 281 304 314 318 322 324 324 322 321 330 335 344 344 339 333 333 332 336 334 333 333 326 322 325 312 297